Orbital Elements at Epoch 2459200.5 (2020-Dec-17.0) TDB
Reference: JPL 14 (heliocentric ecliptic J2000)
Element | Value | Uncertainty (1-sigma) | Units |
e | .07157760761031955 | 6.1914e-08 | |
a | 2.671450119395559 | 2.7419e-08 | au |
q | 2.480234110998923 | 1.6478e-07 | au |
i | 5.560208866237769 | 9.1208e-06 | deg |
node | 215.6536225440625 | 6.1807e-05 | deg |
peri | 126.9202709399771 | 0.00010915 | deg |
M | 129.5503558258513 | 8.3514e-05 | deg |
tp | 2458626.575003014498 (2019-May-23.07500301) | 0.0003693 | TDB |
period | 1594.847019891795 4.37 | 2.4554e-05 6.723e-08 | d yr |
n | .22572697914589 | 3.4752e-09 | deg/d |
Q | 2.862666127792196 | 2.9382e-08 | au |
|
| | Orbit Determination Parameters
Additional Information
|